DW7589 Weather Reports


time (UTC)temp
C
wind
direction
speed
KPH
gust
KPH
rain 1hr
cm
rain 24hr
cm
rain mn
cm
humidity
%
barometer
mb
20260505152926 24 0 0.0 0.0 0.00 0.00 0.00 81 1007.0
20260505152424 24 0 0.0 0.0 0.00 0.00 0.00 81 1007.0
20260505151925 24 0 0.0 0.0 0.00 0.00 0.00 82 1007.0
20260505151424 23 0 0.0 0.0 0.00 0.00 0.00 82 1007.0
20260505150425 23 0 0.0 0.0 0.00 0.00 0.00 82 1006.9
20260505140425 22 0 0.0 0.0 0.00 0.00 0.00 85 1006.6
20260505124924 21 0 0.0 0.0 0.00 0.00 0.00 87 1006.2
20260505123924 21 0 0.0 0.0 0.00 0.00 0.00 87 1006.0
20260505123425 21 0 0.0 0.0 0.00 0.00 0.00 87 1006.1
20260505122925 21 0 0.0 0.0 0.00 0.00 0.00 87 1005.9
20260505121425 22 0 0.0 0.0 0.00 0.00 0.00 87 1005.7
20260505120924 22 0 0.0 0.0 0.00 0.00 0.00 87 1005.6
20260505120426 21 0 0.0 0.0 0.00 0.00 0.00 87 1005.4
20260505115925 21 0 0.0 0.0 0.00 0.00 0.00 87 1005.4
20260505115424 21 0 0.0 0.0 0.00 0.00 0.00 87 1005.4
20260505114925 21 0 0.0 0.0 0.00 0.00 0.00 87 1005.5
20260505114425 21 0 0.0 0.0 0.00 0.00 0.00 87 1005.5
20260505113925 21 0 0.0 0.0 0.00 0.00 0.00 87 1005.4
20260505113425 21 0 0.0 0.0 0.00 0.00 0.00 87 1005.3
20260505112425 21 0 0.0 0.0 0.00 0.00 0.00 87 1005.1
20260505111925 21 0 0.0 0.0 0.00 0.00 0.00 87 1005.3
20260505111425 21 0 0.0 0.0 0.00 0.00 0.00 87 1005.5
20260505110425 21 0 0.0 0.0 0.00 0.00 0.00 87 1005.4
20260505101924 21 0 0.0 0.0 0.00 0.00 0.00 87 1005.5
20260505101426 21 0 0.0 0.0 0.00 0.00 0.00 87 1005.5
20260505100926 21 0 0.0 0.0 0.00 0.00 0.00 87 1005.6
20260505100426 21 0 0.0 0.0 0.00 0.00 0.00 87 1005.7
20260505095426 21 0 0.0 0.0 0.00 0.00 0.00 87 1005.5
20260505094925 21 0 0.0 0.0 0.00 0.00 0.00 87 1005.6
20260505094425 21 0 0.0 0.0 0.00 0.00 0.00 87 1005.7
20260505092925 21 0 0.0 0.0 0.00 0.00 0.00 87 1005.6
20260505092426 21 0 0.0 0.0 0.00 0.00 0.00 86 1005.6
20260505091925 21 0 0.0 0.0 0.00 0.00 0.00 86 1005.7
20260505091426 21 0 0.0 0.0 0.00 0.00 0.00 86 1005.7
20260505090926 21 0 0.0 0.0 0.00 0.00 0.00 86 1005.7
20260505090425 21 0 0.0 0.0 0.00 0.00 0.00 86 1005.7
20260505085925 21 0 0.0 0.0 0.00 0.00 0.00 86 1005.7
20260505085426 21 0 0.0 0.0 0.00 0.00 0.00 86 1005.8
20260505083925 21 0 0.0 0.0 0.00 0.00 0.00 86 1005.7
20260505083425 21 0 0.0 0.0 0.00 0.00 0.00 86 1005.7
20260505082925 21 0 0.0 0.0 0.00 0.00 0.00 86 1005.7
20260505082425 21 0 0.0 0.0 0.00 0.00 0.00 86 1005.9
20260505081925 21 0 0.0 0.0 0.00 0.00 0.00 86 1005.9
20260505081425 21 0 0.0 0.0 0.00 0.00 0.00 86 1005.9
20260505080926 21 0 0.0 0.0 0.00 0.00 0.00 85 1005.9
20260505080426 21 0 0.0 0.0 0.00 0.00 0.00 85 1006.0
20260505075925 21 0 0.0 0.0 0.00 0.00 0.00 85 1006.0
20260505075425 21 0 0.0 0.0 0.00 0.00 0.00 85 1006.2
20260505073425 22 0 0.0 0.0 0.00 0.00 0.00 85 1006.5
20260505072426 22 0 0.0 0.0 0.00 0.00 0.00 84 1006.4
20260505071925 22 0 0.0 0.0 0.00 0.00 0.00 84 1006.6
20260505071425 22 0 0.0 0.0 0.00 0.00 0.00 84 1006.6
20260505070925 22 0 0.0 0.0 0.00 0.00 0.00 84 1006.7
20260505070426 22 0 0.0 0.0 0.00 0.00 0.00 84 1006.8
20260505065925 22 0 0.0 0.0 0.00 0.00 0.00 84 1006.9
20260505064425 22 0 0.0 0.0 0.00 0.00 0.00 84 1007.3
20260505063926 22 0 0.0 0.0 0.00 0.00 0.00 84 1007.3
20260505063425 22 0 0.0 0.0 0.00 0.00 0.00 84 1007.3
20260505062425 22 0 0.0 0.0 0.00 0.00 0.00 84 1007.4
20260505061925 21 0 0.0 0.0 0.00 0.00 0.00 85 1007.6
20260505061425 21 0 0.0 0.0 0.00 0.00 0.00 84 1007.5
20260505060925 22 0 0.0 0.0 0.00 0.00 0.00 84 1007.5
20260505060426 22 0 0.0 0.0 0.00 0.00 0.00 84 1007.5
20260505055925 22 0 0.0 0.0 0.00 0.00 0.00 83 1007.5
20260505054925 22 0 0.0 0.0 0.00 0.00 0.00 83 1007.6
20260505054425 22 0 0.0 0.0 0.00 0.00 0.00 82 1007.7
20260505053925 22 0 0.0 0.0 0.00 0.00 0.00 82 1007.6
20260505053425 22 0 0.0 0.0 0.00 0.00 0.00 82 1007.6
20260505052925 22 0 0.0 0.0 0.00 0.00 0.00 82 1007.5
20260505052426 22 0 0.0 0.0 0.00 0.00 0.00 81 1007.5
20260505051926 22 0 0.0 0.0 0.00 0.00 0.00 81 1007.6
20260505051426 22 0 0.0 0.0 0.00 0.00 0.00 81 1007.7
20260505050425 22 0 0.0 0.0 0.00 0.00 0.00 80 1007.7
20260505041427 23 0 0.0 0.0 0.00 0.00 0.00 77 1007.6
20260505040926 23 0 0.0 0.0 0.00 0.00 0.00 76 1007.6
20260505035927 23 0 0.0 0.0 0.00 0.00 0.00 75 1007.4
20260505034426 23 0 0.0 0.0 0.00 0.00 0.00 74 1007.5
20260505033925 23 0 0.0 0.0 0.00 0.00 0.00 73 1007.5
20260505032925 23 0 0.0 0.0 0.00 0.00 0.00 73 1007.5
20260505032425 23 0 0.0 0.0 0.00 0.00 0.00 72 1007.3
20260505031426 23 0 0.0 0.0 0.00 0.00 0.00 72 1007.5
20260505030926 23 0 0.0 0.0 0.00 0.00 0.00 72 1007.4
20260505030425 23 0 0.0 0.0 0.00 0.00 0.00 72 1007.5
20260505025926 24 0 0.0 0.0 0.00 0.00 0.00 71 1007.5
20260505025426 24 0 0.0 0.0 0.00 0.00 0.00 71 1007.3
20260505024926 24 0 0.0 0.0 0.00 0.00 0.00 71 1007.3
20260505024426 24 0 0.0 0.0 0.00 0.00 0.00 71 1007.3
20260505023926 24 0 0.0 0.0 0.00 0.00 0.00 71 1007.2
20260505023425 24 0 0.0 0.0 0.00 0.00 0.00 70 1007.3
20260505022926 24 0 0.0 0.0 0.00 0.00 0.00 70 1007.2
20260505022426 24 0 0.0 0.0 0.00 0.00 0.00 70 1007.0
20260505021427 24 0 0.0 0.0 0.00 0.00 0.00 69 1007.0
20260505020925 24 0 0.0 0.0 0.00 0.00 0.00 69 1007.0
20260505020426 24 0 0.0 0.0 0.00 0.00 0.00 69 1007.0
20260505015925 24 0 0.0 0.0 0.00 0.00 0.00 69 1006.9
20260505014926 25 0 0.0 0.0 0.00 0.00 0.00 69 1006.8
20260505013925 25 0 0.0 0.0 0.00 0.00 0.00 68 1006.5
20260505013426 25 0 0.0 0.0 0.00 0.00 0.00 68 1006.5
20260505012927 25 0 0.0 0.0 0.00 0.00 0.00 68 1006.4
20260505012425 25 0 0.0 0.0 0.00 0.00 0.00 68 1006.5
20260505011425 25 0 0.0 0.0 0.00 0.00 0.00 67 1006.7
20260505010425 25 0 0.0 0.0 0.00 0.00 0.00 67 1006.6
20260505005427 25 0 0.0 0.0 0.00 0.00 0.00 66 1006.7
20260505004925 25 0 0.0 0.0 0.00 0.00 0.00 66 1006.8
20260505004426 25 0 0.0 0.0 0.00 0.00 0.00 65 1006.9
20260505003925 26 0 0.0 0.0 0.00 0.00 0.00 65 1006.9
20260505003426 26 0 0.0 0.0 0.00 0.00 0.00 64 1006.9
20260505002926 26 0 0.0 0.0 0.00 0.00 0.00 64 1006.9
20260505002427 26 0 0.0 0.0 0.00 0.00 0.00 63 1006.9
20260505001926 26 0 0.0 0.0 0.00 0.00 0.00 63 1006.8
20260505001426 26 0 0.0 0.0 0.00 0.00 0.00 62 1006.9
20260505000925 26 0 0.0 0.0 0.00 0.00 0.00 63 1006.8
20260505000428 26 0 0.0 0.0 0.00 0.00 0.00 62 1006.9
20260504235926 26 0 0.0 0.0 0.00 0.00 0.00 62 1006.9
20260504235426 26 0 0.0 0.0 0.00 0.00 0.00 61 1006.9
20260504234927 26 0 0.0 0.0 0.00 0.00 0.00 61 1007.0
20260504234425 27 0 0.0 0.0 0.00 0.00 0.00 61 1007.0
20260504233926 27 0 0.0 0.0 0.00 0.00 0.00 61 1007.2
20260504233426 26 0 0.0 0.0 0.00 0.00 0.00 61 1007.1
20260504232925 26 0 0.0 0.0 0.00 0.00 0.00 61 1007.2
20260504232426 27 0 0.0 0.0 0.00 0.00 0.00 61 1007.3
20260504231927 27 0 0.0 0.0 0.00 0.00 0.00 61 1007.3
20260504230926 26 0 0.0 0.0 0.00 0.00 0.00 61 1007.3
20260504225926 26 0 0.0 0.0 0.00 0.00 0.00 61 1007.6
20260504225425 26 0 0.0 0.0 0.00 0.00 0.00 61 1007.7
20260504224926 26 0 0.0 0.0 0.00 0.00 0.00 62 1007.7
20260504224425 26 0 0.0 0.0 0.00 0.00 0.00 63 1007.9
20260504223926 26 0 0.0 0.0 0.00 0.00 0.00 62 1007.7
20260504223425 26 0 0.0 0.0 0.00 0.00 0.00 62 1007.8
20260504222426 26 0 0.0 0.0 0.00 0.00 0.00 63 1007.7
20260504221926 26 0 0.0 0.0 0.00 0.00 0.00 62 1007.8
20260504220927 26 0 0.0 0.0 0.00 0.00 0.00 62 1008.0
20260504220427 26 0 0.0 0.0 0.00 0.00 0.00 62 1008.2
20260504215926 26 0 0.0 0.0 0.00 0.00 0.00 62 1008.3
20260504215426 26 0 0.0 0.0 0.00 0.00 0.00 62 1008.1
20260504214925 26 0 0.0 0.0 0.00 0.00 0.00 61 1008.4
20260504214426 26 0 0.0 0.0 0.00 0.00 0.00 61 1008.3
20260504213926 26 0 0.0 0.0 0.00 0.00 0.00 61 1008.3
20260504213427 26 0 0.0 0.0 0.00 0.00 0.00 61 1008.3
20260504212927 26 0 0.0 0.0 0.00 0.00 0.00 60 1008.5
20260504211426 26 0 0.0 0.0 0.00 0.00 0.00 60 1008.8
20260504210925 26 0 0.0 0.0 0.00 0.00 0.00 59 1008.9
20260504210426 27 0 0.0 0.0 0.00 0.00 0.00 60 1009.0
20260504205926 26 0 0.0 0.0 0.00 0.00 0.00 59 1009.1
20260504205426 26 0 0.0 0.0 0.00 0.00 0.00 61 1009.2
20260504204425 26 0 0.0 0.0 0.00 0.00 0.00 61 1009.4
20260504203926 26 0 0.0 0.0 0.00 0.00 0.00 61 1009.4
20260504201926 26 0 0.0 0.0 0.00 0.00 0.00 59 1009.9
20260504201426 26 0 0.0 0.0 0.00 0.00 0.00 60 1010.0
20260504200927 26 0 0.0 0.0 0.00 0.00 0.00 61 1010.1
20260504200425 26 0 0.0 0.0 0.00 0.00 0.00 60 1010.4
20260504195926 26 0 0.0 0.0 0.00 0.00 0.00 60 1010.3
20260504194926 26 0 0.0 0.0 0.00 0.00 0.00 60 1010.5
20260504194426 26 0 0.0 0.0 0.00 0.00 0.00 59 1010.4
20260504193926 26 0 0.0 0.0 0.00 0.00 0.00 59 1010.6
20260504193426 26 0 0.0 0.0 0.00 0.00 0.00 61 1010.6
20260504192426 26 0 0.0 0.0 0.00 0.00 0.00 60 1010.7
20260504191925 26 0 0.0 0.0 0.00 0.00 0.00 60 1010.8
20260504191427 26 0 0.0 0.0 0.00 0.00 0.00 61 1010.9
20260504190927 26 0 0.0 0.0 0.00 0.00 0.00 60 1011.0
20260504190426 26 0 0.0 0.0 0.00 0.00 0.00 59 1011.0
20260504185926 26 0 0.0 0.0 0.00 0.00 0.00 61 1011.1
20260504185427 25 0 0.0 0.0 0.00 0.00 0.00 60 1011.1
20260504184426 25 0 0.0 0.0 0.00 0.00 0.00 60 1011.1
20260504183926 25 0 0.0 0.0 0.00 0.00 0.00 60 1011.3
20260504183426 25 0 0.0 0.0 0.00 0.00 0.00 60 1011.4
20260504182926 25 0 0.0 0.0 0.00 0.00 0.00 61 1011.4
20260504182427 25 0 0.0 0.0 0.00 0.00 0.00 60 1011.4
20260504181927 25 0 0.0 0.0 0.00 0.00 0.00 61 1011.5
20260504180926 25 0 0.0 0.0 0.00 0.00 0.00 63 1011.7
20260504180426 25 0 0.0 0.0 0.00 0.00 0.00 63 1011.9
20260504175926 25 0 0.0 0.0 0.00 0.00 0.00 62 1012.0
20260504175428 25 0 0.0 0.0 0.00 0.00 0.00 63 1012.2
20260504174927 24 0 0.0 0.0 0.00 0.00 0.00 64 1012.3
20260504174426 25 0 0.0 0.0 0.00 0.00 0.00 63 1012.3
20260504173926 24 0 0.0 0.0 0.00 0.00 0.00 63 1012.3
20260504173427 24 0 0.0 0.0 0.00 0.00 0.00 64 1012.3
20260504172926 24 0 0.0 0.0 0.00 0.00 0.00 64 1012.4
20260504172427 24 0 0.0 0.0 0.00 0.00 0.00 64 1012.4
20260504171927 24 0 0.0 0.0 0.00 0.00 0.00 64 1012.6
20260504170926 24 0 0.0 0.0 0.00 0.00 0.00 63 1012.8
20260504170427 23 0 0.0 0.0 0.00 0.00 0.00 66 1012.9
20260504160428 22 0 0.0 0.0 0.00 0.00 0.00 67 1013.4